EDT,Max TemperatureF,Mean TemperatureF,Min TemperatureF,Max Dew PointF,MeanDew PointF,Min DewpointF,Max Humidity, Mean Humidity, Min Humidity, Max Sea Level PressureIn, Mean Sea Level PressureIn, Min Sea Level PressureIn, Max VisibilityMiles, Mean VisibilityMiles, Min VisibilityMiles, Max Wind SpeedMPH, Mean Wind SpeedMPH, Max Gust SpeedMPH,PrecipitationIn, CloudCover, Events, WindDirDegrees
2013-3-1,66,63,60,59,53,48,87,69,60,30.01,29.97,29.93,10,10,10,12,6,,0.01,8,Rain,331
2013-3-2,70,60,51,47,42,38,74,57,38,30.06,30.02,29.97,10,10,10,20,11,25,0.00,5,,328
2013-3-3,64,54,45,49,44,41,93,69,45,30.17,30.06,30.00,10,10,10,21,7,30,0.01,3,Rain,312
2013-3-4,69,56,43,46,39,29,83,60,26,30.24,30.18,30.13,10,10,9,15,8,18,0.00,0,,11
2013-3-5,75,62,48,56,52,44,94,70,46,30.18,30.14,30.11,10,10,9,10,4,18,0.00,0,Rain,156
2013-3-6,80,66,51,62,52,40,97,69,40,30.12,30.07,29.99,10,10,9,26,9,32,0.01,1,,269
2013-3-7,71,60,48,47,41,35,93,56,33,30.20,30.16,30.10,10,10,10,16,10,,0.00,0,,332
2013-3-8,77,62,46,52,49,46,97,67,34,30.21,30.16,30.12,10,10,8,13,5,16,0.00,0,,347
2013-3-9,77,64,50,56,53,49,100,69,48,30.20,30.16,30.12,10,10,4,14,6,,0.00,0,,44
2013-3-10,77,66,55,57,54,51,88,65,43,30.16,30.11,30.07,10,10,10,18,7,23,0.00,3,,92
2013-3-11,79,70,62,62,60,56,84,68,50,30.10,30.03,29.97,10,10,10,15,7,25,0.00,5,Rain,124
2013-3-12,82,74,66,67,64,61,94,73,56,30.02,29.98,29.94,10,10,9,16,7,24,0.00,4,,199
2013-3-13,79,68,57,65,53,40,94,66,29,30.14,30.06,30.00,10,10,10,15,9,24,0.00,3,,344
2013-3-14,75,62,52,51,42,32,89,51,21,30.22,30.16,30.11,10,10,10,16,10,23,0.00,0,,3
2013-3-15,75,63,51,50,45,32,89,59,22,30.26,30.20,30.16,10,10,10,14,8,20,0.00,0,,38
2013-3-16,77,63,51,56,51,47,100,66,40,30.21,30.16,30.11,10,10,5,14,5,16,0.00,0,Rain,117
2013-3-17,79,66,54,59,56,51,93,70,46,30.15,30.10,30.04,10,10,10,14,3,20,0.00,2,Rain,134
2013-3-18,81,72,64,71,66,60,97,78,61,30.08,30.03,29.99,10,10,10,16,6,25,0.02,5,Rain,141
2013-3-19,78,70,64,70,67,62,100,86,62,30.03,29.97,29.91,10,9,4,12,6,,0.20,3,Rain,273
2013-3-20,87,72,59,68,62,59,100,88,44,30.00,29.93,29.83,10,6,0,10,3,16,0.08,1,Fog,286
2013-3-21,80,70,60,61,56,48,100,71,36,29.96,29.90,29.86,10,10,10,14,7,20,0.00,3,,337
2013-3-22,80,71,62,71,65,56,97,76,61,30.01,29.95,29.91,10,10,10,17,7,25,0.00,5,Rain,131
2013-3-23,89,80,72,74,69,63,97,76,46,29.99,29.92,29.84,10,10,7,14,5,20,0.01,2,,174
2013-3-24,89,81,73,74,72,70,100,79,53,29.90,29.81,29.73,10,9,3,26,9,38,0.00,4,,201
2013-3-25,82,76,66,73,62,40,100,67,35,30.01,29.86,29.77,10,10,9,15,7,22,0.00,6,,311
2013-3-26,73,63,53,46,39,34,62,44,26,30.23,30.11,30.03,10,10,10,17,13,23,0.00,4,,337
2013-3-27,72,58,45,42,38,34,80,50,35,30.27,30.22,30.17,10,10,10,16,11,23,0.00,0,,351
2013-3-28,75,62,48,47,42,25,83,53,15,30.28,30.22,30.17,10,10,10,15,6,21,0.00,0,,24
2013-3-29,79,66,55,51,48,40,72,55,37,30.29,30.24,30.22,10,10,10,15,8,22,0.00,1,,49
2013-3-30,78,65,55,55,52,48,93,64,37,30.27,30.22,30.17,10,10,10,15,4,23,0.00,1,,100
2013-3-31,81,70,59,66,61,54,93,71,52,30.20,30.12,30.06,10,10,10,18,7,24,0.00,1,,128